{"data":{"norad_id":56104,"epoch":"2026-05-25T04:28:26.666400Z","epoch_age_seconds":62122,"freshness":"FRESH","line1":"1 56104U 23046M   26145.18641975  .00000221  00000+0  17547-4 0  9992","line2":"2 56104  43.0046  89.2873 0001249 258.6636 101.4075 15.27569048173730","mean_motion":15.27569048,"eccentricity":0.0001249,"inclination_deg":43.0046,"raan_deg":89.2873,"arg_perigee_deg":258.6636,"mean_anomaly_deg":101.4075,"bstar":1.7547e-5,"rev_number":17373,"period_min":94.267424564889,"perigee_km":482.22492422413,"apogee_km":483.93885670297,"semimajor_km":6861.2188904635,"source":"CELESTRAK","updated_at":"2026-05-25T13:38:17.955135Z"}}